[[{"header":{"parameterUnit":"m.s-1","parameterCategory":1,"la1":30.2991,"la2":30.254,"lo1":-89.0895,"lo2":-89.0444,"dy":0.0017,"dx":0.0017,"nx":28,"ny":28,"refTime":"2025-01-23T09:00:00:Z","depth":0,"parameterNumber":2,"parameterNumberName":"U-component_of_WINDS"},"data":[0,0,0,0,0,0,0,0,0,0,0,0,0,0,0,0,0,0,0,0,0,0,0,0,0,0,0,0,0,0,0,0,0,0,0,0,0,0,0,0,0,0,0,0,0,0,0,0,0,0,0,0,0,0,0,0,0,0,0.1215,0.1215,0,0.1253,0.1253,0.1254,0.1296,0.1297,0.1297,0.1298,0.1336,0.1336,0.1337,0,0,0,0,0,0,0,0,0,0,0,0,0,0.1178,0.1179,0.1215,0.1215,0.1216,0.1253,0.1253,0.1254,0.1296,0.1297,0.1297,0.1298,0.1336,0.1336,0.1337,0,0,0,0,0,0,0,0,0,0,0,0,0,0.1203,0.1179,0.1215,0.1241,0.1244,0.1253,0.1253,0.1254,0.1296,0.1297,0.1297,0.1298,0.1336,0.1336,0.1337,0.1323,0,0,0.1339,0.1339,0,0,0,0,0,0,0,0,0.1202,0.1204,0.1237,0.1239,0.1242,0.1271,0.1255,0.1277,0.1295,0.1276,0.1298,0.1299,0.1313,0.1316,0.1321,0.1324,0.1326,0.1339,0.134,0.134,0.134,0,0,0,0,0,0,0,0.12,0.1203,0.123,0.1237,0.1241,0.1251,0.1256,0.1259,0.1289,0.1278,0.1281,0.1285,0.1315,0.132,0.1322,0.1327,0.1339,0.134,0.134,0.134,0.132,0.1319,0,0,0,0,0,0,0.1194,0.1201,0.1229,0.1231,0.1224,0.1251,0.1256,0.1261,0.1289,0.1294,0.1284,0.1287,0.1319,0.1321,0.1324,0.1308,0.134,0.134,0.1341,0.1321,0.1319,0.1318,0,0,0,0,0,0,0.1193,0.1196,0.1227,0.1217,0.1222,0.1251,0.1255,0.1261,0.1266,0.1294,0.1299,0.1284,0.132,0.1323,0.1323,0.131,0.1341,0.1341,0.1322,0.132,0.1319,0.1278,0,0,0,0,0,0,0.1192,0.1196,0.119,0.1217,0.1222,0.1225,0.1255,0.1261,0.1267,0.1271,0.1295,0.13,0.1321,0.1321,0.1323,0.1312,0.1342,0.1323,0.1321,0.1319,0.128,0.1275,0.127,0,0,0,0,0,0.1191,0.1177,0.119,0.1193,0.1216,0.1224,0.1228,0.1252,0.1266,0.1261,0.1279,0.1299,0.1312,0.1321,0.1323,0.1312,0.1324,0.1322,0.132,0.1282,0.1276,0.1271,0,0,0,0,0,0,0.1149,0.1181,0.1196,0.119,0.1204,0.1231,0.1226,0.1244,0.1254,0.1257,0.1287,0.1292,0.1288,0.13,0.131,0.1299,0.1321,0.1319,0.1291,0.1286,0.1281,0.1278,0.1342,0,0,0,0,0,0.1139,0.1143,0.1171,0.1164,0.117,0.1197,0.1201,0.1218,0.1234,0.124,0.1258,0.1272,0.1279,0.1283,0.1291,0.1282,0.1288,0.1276,0.1271,0.1267,0.1265,0.1261,0.1255,0.1311,0.1311,0.1311,0,0,0.1119,0.1137,0.1138,0.1156,0.1169,0.1172,0.1201,0.1204,0.1206,0.124,0.1241,0.1255,0.1272,0.1268,0.1266,0.1278,0.1251,0.1264,0.1261,0.1261,0.1258,0.1252,0.1248,0.131,0.131,0.131,0,0,0.1083,0.1098,0.1093,0.1105,0.1124,0.1142,0.1141,0.1166,0.1176,0.1177,0.1203,0.1206,0.1218,0.123,0.1237,0.1206,0.1225,0.1208,0.1182,0.1178,0.1174,0.117,0.1158,0.1154,0.1206,0.1206,0.1206,0,0.1056,0.1062,0.1088,0.1089,0.1096,0.1127,0.1123,0.1133,0.1154,0.1158,0.1171,0.1186,0.12,0.1198,0.1191,0.1196,0.1195,0.1205,0.1172,0.1169,0.1165,0.1155,0.115,0.1204,0.1204,0.1204,0.1204,0,0.1027,0.103,0.1024,0.1044,0.105,0.1048,0.1074,0.1078,0.1094,0.1111,0.1111,0.113,0.1142,0.1143,0.1159,0.1143,0.115,0.1167,0.1188,0.1157,0.1148,0.1144,0.12,0.1201,0.1202,0.1202,0,0,0.0966,0.1,0.0997,0.1006,0.1029,0.1033,0.1032,0.1044,0.1046,0.106,0.106,0.1069,0.1085,0.1093,0.1111,0.1107,0.1081,0.1125,0.1126,0.1116,0.1064,0.105,0.1045,0.1094,0.1093,0.1093,0.1062,0,0.0934,0.0935,0.0959,0.0953,0.0956,0.0986,0.0986,0.1,0.1015,0.1021,0.1038,0.1043,0.1064,0.1069,0.1067,0.1085,0.1071,0.1087,0.1094,0.1094,0.1088,0.104,0.1026,0.0996,0.1059,0.1058,0.1058,0,0.0897,0.0908,0.0902,0.0926,0.0928,0.0927,0.094,0.0945,0.0962,0.0973,0.0983,0.1003,0.1004,0.1025,0.1026,0.1037,0.1041,0.105,0.105,0.1051,0.1073,0.1039,0.0987,0.0983,0.1052,0.1053,0.1053,0,0.0853,0.0866,0.0864,0.0871,0.0899,0.0897,0.0909,0.0926,0.0932,0.0943,0.0947,0.0959,0.0964,0.0973,0.0996,0.1009,0.0994,0.1017,0.1003,0.1003,0.0998,0.0998,0.0945,0.1002,0.1002,0.1002,0.1002,0,0.0814,0.081,0.0845,0.0843,0.0839,0.0866,0.0861,0.0876,0.0891,0.0893,0.092,0.0921,0.0952,0.0956,0.0975,0.0973,0.0975,0.0984,0.0989,0.0982,0.098,0.0984,0.0987,0.1001,0.1001,0.1001,0.1002,0,0.0763,0.0787,0.0787,0.0813,0.0819,0.0815,0.0837,0.0837,0.0854,0.0856,0.0859,0.0885,0.0892,0.0916,0.0929,0.0941,0.0933,0.0943,0.0928,0.0931,0.0915,0.0916,0.0863,0.0857,0.0917,0.0917,0.0916,0,0.0737,0.0734,0.076,0.0763,0.0774,0.0779,0.0785,0.0812,0.0817,0.0835,0.0833,0.0842,0.0851,0.086,0.0881,0.0891,0.09,0.0881,0.0902,0.0894,0.0899,0.0899,0.0898,0.0876,0.0875,0.0875,0.0874,0,0.0688,0.07,0.0707,0.0719,0.0725,0.0735,0.0747,0.0749,0.0779,0.0783,0.079,0.0797,0.081,0.0819,0.0832,0.0844,0.0864,0.0867,0.0865,0.0857,0.0848,0.0852,0.0915,0.0868,0.0869,0.0869,0.087,0.087,0.0649,0.0647,0.0665,0.0672,0.0684,0.0695,0.0696,0.0713,0.072,0.0732,0.0748,0.0753,0.077,0.079,0.08,0.0805,0.0816,0.0812,0.0811,0.0809,0.0805,0.0847,0.0807,0.0808,0.0808,0.0808,0.0808,0,0.06,0.0613,0.062,0.0636,0.0641,0.066,0.0674,0.0678,0.0682,0.0696,0.0704,0.0712,0.0721,0.0742,0.0752,0.0752,0.0761,0.0754,0.0754,0.0756,0.0795,0.0796,0.0746,0.0746,0.0746,0.0746,0.0746,0.0746,0.0576,0.0574,0.0588,0.0592,0.0606,0.0611,0.0617,0.0627,0.0638,0.0646,0.0654,0.0668,0.0684,0.0696,0.0705,0.0711,0.0713,0.0702,0.0711,0.0747,0.0753,0.0759,0.076,0.0703,0.0702,0.0671,0.0671,0.0671]},{"header":{"parameterUnit":"m.s-1","parameterCategory":1,"la1":30.2991,"la2":30.254,"lo1":-89.0895,"lo2":-89.0444,"dy":0.0017,"dx":0.0017,"nx":28,"ny":28,"refTime":"2025-01-23T09:00:00:Z","depth":0,"parameterNumber":3,"parameterNumberName":"V-component_of_WINDS"},"data":[0,0,0,0,0,0,0,0,0,0,0,0,0,0,0,0,0,0,0,0,0,0,0,0,0,0,0,0,0,0,0,0,0,0,0,0,0,0,0,0,0,0,0,0,0,0,0,0,0,0,0,0,0,0,0,0,0,0,-2.583,-2.583,0,-2.5853,-2.5854,-2.5854,-2.583,-2.5829,-2.5828,-2.5827,-2.5852,-2.5853,-2.5854,0,0,0,0,0,0,0,0,0,0,0,0,0,-2.5766,-2.5767,-2.583,-2.583,-2.583,-2.5853,-2.5854,-2.5854,-2.583,-2.5829,-2.5828,-2.5827,-2.5851,-2.5853,-2.5855,0,0,0,0,0,0,0,0,0,0,0,0,0,-2.5792,-2.5768,-2.583,-2.5821,-2.5821,-2.5853,-2.5854,-2.5854,-2.583,-2.5829,-2.5828,-2.5826,-2.585,-2.5853,-2.5855,-2.5897,0,0,-2.5862,-2.5863,0,0,0,0,0,0,0,0,-2.5791,-2.5794,-2.5822,-2.5822,-2.5821,-2.5837,-2.584,-2.5868,-2.5831,-2.5827,-2.5827,-2.5826,-2.5848,-2.585,-2.5858,-2.5898,-2.5899,-2.5862,-2.5863,-2.5864,-2.5865,0,0,0,0,0,0,0,-2.5789,-2.5793,-2.5839,-2.5823,-2.5822,-2.5817,-2.5819,-2.5845,-2.5845,-2.5827,-2.5825,-2.5828,-2.5847,-2.5856,-2.5858,-2.5899,-2.5862,-2.5864,-2.5865,-2.5866,-2.5978,-2.5979,0,0,0,0,0,0,-2.5788,-2.5792,-2.5838,-2.584,-2.5802,-2.5819,-2.5822,-2.5834,-2.5845,-2.5845,-2.583,-2.5827,-2.5852,-2.5856,-2.5859,-2.5911,-2.5864,-2.5866,-2.5868,-2.5976,-2.5978,-2.598,0,0,0,0,0,0,-2.5786,-2.5792,-2.5837,-2.5815,-2.5821,-2.5822,-2.5836,-2.5835,-2.5843,-2.5847,-2.5846,-2.5838,-2.5851,-2.5856,-2.5888,-2.5912,-2.5867,-2.587,-2.5974,-2.5977,-2.5979,-2.6015,0,0,0,0,0,0,-2.5785,-2.5792,-2.5807,-2.5816,-2.5822,-2.5866,-2.5837,-2.5836,-2.5847,-2.5844,-2.5854,-2.5855,-2.5851,-2.5885,-2.589,-2.5914,-2.5871,-2.5972,-2.5975,-2.5978,-2.6011,-2.6018,-2.6024,0,0,0,0,0,-2.5783,-2.5816,-2.5808,-2.5814,-2.5841,-2.5867,-2.5871,-2.5866,-2.5849,-2.5865,-2.5868,-2.5854,-2.5908,-2.5888,-2.5894,-2.5919,-2.5971,-2.5975,-2.5978,-2.6009,-2.6017,-2.6023,0,0,0,0,0,0,-2.5809,-2.5817,-2.5808,-2.5845,-2.5856,-2.5863,-2.5883,-2.5874,-2.5889,-2.5886,-2.5879,-2.5881,-2.5916,-2.592,-2.5899,-2.5961,-2.5937,-2.5942,-2.5958,-2.5965,-2.5971,-2.5971,-2.5873,0,0,0,0,0,-2.582,-2.584,-2.5845,-2.5877,-2.5883,-2.5882,-2.5893,-2.5889,-2.5899,-2.5904,-2.5908,-2.592,-2.5939,-2.5952,-2.597,-2.6011,-2.6015,-2.6031,-2.6037,-2.6042,-2.6047,-2.6072,-2.6081,-2.5992,-2.5992,-2.5992,0,0,-2.5841,-2.5847,-2.5861,-2.5883,-2.589,-2.5913,-2.5886,-2.591,-2.5927,-2.5907,-2.5939,-2.5943,-2.5955,-2.5993,-2.601,-2.5997,-2.6072,-2.6047,-2.6051,-2.6053,-2.6077,-2.6085,-2.6093,-2.5994,-2.5994,-2.5993,0,0,-2.5892,-2.5898,-2.5927,-2.5935,-2.5948,-2.5947,-2.5954,-2.5963,-2.5966,-2.5997,-2.5984,-2.6003,-2.6036,-2.6046,-2.6056,-2.6112,-2.6102,-2.6118,-2.6151,-2.6175,-2.6182,-2.6188,-2.6211,-2.6219,-2.6123,-2.6123,-2.6123,0,-2.5917,-2.595,-2.5943,-2.5968,-2.598,-2.5963,-2.5993,-2.6002,-2.6019,-2.6028,-2.6013,-2.6056,-2.6063,-2.6104,-2.6118,-2.6125,-2.6135,-2.6118,-2.6182,-2.6188,-2.6194,-2.6215,-2.6224,-2.6125,-2.6125,-2.6124,-2.6124,0,-2.5981,-2.6004,-2.6026,-2.6045,-2.6058,-2.6086,-2.6084,-2.6098,-2.6092,-2.6094,-2.6127,-2.6135,-2.6155,-2.6164,-2.6158,-2.6205,-2.6198,-2.6183,-2.6158,-2.6204,-2.6225,-2.6233,-2.6128,-2.6127,-2.6126,-2.6126,0,0,-2.605,-2.6066,-2.6074,-2.6084,-2.6097,-2.6114,-2.6142,-2.6162,-2.6176,-2.6188,-2.6213,-2.6242,-2.6229,-2.6239,-2.6234,-2.6255,-2.6303,-2.6238,-2.6238,-2.6252,-2.6359,-2.6373,-2.6382,-2.6295,-2.6297,-2.6298,-2.6359,0,-2.6104,-2.6152,-2.6148,-2.6194,-2.6217,-2.6202,-2.6226,-2.6237,-2.6239,-2.6259,-2.6261,-2.6283,-2.6262,-2.6269,-2.6289,-2.6293,-2.6325,-2.6288,-2.632,-2.6321,-2.632,-2.6393,-2.6406,-2.6464,-2.6367,-2.6368,-2.6369,0,-2.6173,-2.619,-2.6239,-2.6251,-2.626,-2.6282,-2.6302,-2.632,-2.6333,-2.6333,-2.6346,-2.6338,-2.6367,-2.634,-2.6381,-2.6356,-2.6368,-2.6372,-2.6374,-2.6379,-2.635,-2.6402,-2.6482,-2.6492,-2.6381,-2.638,-2.6379,0,-2.6222,-2.6256,-2.6291,-2.6299,-2.6313,-2.6329,-2.6336,-2.6347,-2.6361,-2.6378,-2.6387,-2.6406,-2.6418,-2.6434,-2.6431,-2.6411,-2.6474,-2.6446,-2.6477,-2.6477,-2.6493,-2.6492,-2.6579,-2.6496,-2.6496,-2.6496,-2.6496,0,-2.6284,-2.6316,-2.6314,-2.6335,-2.6371,-2.6365,-2.64,-2.6405,-2.6415,-2.6438,-2.6425,-2.6447,-2.6442,-2.6464,-2.6462,-2.6498,-2.6502,-2.6504,-2.6504,-2.6507,-2.6507,-2.6517,-2.6514,-2.6498,-2.6498,-2.6497,-2.6497,0,-2.6346,-2.6346,-2.6383,-2.6394,-2.6397,-2.6423,-2.6432,-2.6453,-2.6455,-2.6484,-2.6491,-2.6493,-2.6518,-2.6517,-2.6545,-2.6544,-2.6589,-2.6583,-2.6586,-2.6585,-2.6617,-2.6615,-2.6715,-2.6729,-2.6635,-2.6635,-2.6636,0,-2.6387,-2.6411,-2.6425,-2.644,-2.6448,-2.6471,-2.6485,-2.6481,-2.6496,-2.6513,-2.6533,-2.6557,-2.6577,-2.6618,-2.6623,-2.6645,-2.664,-2.6674,-2.6644,-2.6647,-2.6645,-2.6645,-2.6648,-2.6681,-2.6682,-2.6682,-2.6683,0,-2.6461,-2.646,-2.6481,-2.6503,-2.652,-2.6536,-2.6552,-2.6564,-2.6561,-2.6579,-2.6606,-2.6621,-2.6651,-2.6676,-2.6698,-2.6705,-2.6695,-2.6692,-2.6701,-2.6706,-2.6708,-2.6711,-2.6605,-2.6691,-2.669,-2.6689,-2.6689,-2.6689,-2.6515,-2.6537,-2.6551,-2.6575,-2.6587,-2.6602,-2.6623,-2.6627,-2.6649,-2.6674,-2.6669,-2.67,-2.6713,-2.6742,-2.6751,-2.6775,-2.6763,-2.6775,-2.6779,-2.6783,-2.6788,-2.6702,-2.6778,-2.6778,-2.6778,-2.6778,-2.6777,0,-2.6591,-2.6599,-2.6622,-2.6645,-2.6664,-2.6652,-2.6669,-2.6687,-2.6714,-2.6727,-2.6747,-2.6779,-2.6803,-2.681,-2.6834,-2.6852,-2.6849,-2.6859,-2.6859,-2.6862,-2.6795,-2.6787,-2.6862,-2.6862,-2.6862,-2.6862,-2.6862,-2.6862,-2.6633,-2.667,-2.6671,-2.6715,-2.6723,-2.6753,-2.6764,-2.6779,-2.679,-2.6826,-2.6847,-2.6851,-2.6863,-2.6888,-2.6911,-2.6912,-2.6923,-2.6936,-2.6936,-2.6874,-2.6866,-2.6858,-2.685,-2.6938,-2.6938,-2.7001,-2.7002,-2.7002]}]]